Location: *
(50.3194°N, 7.1067°E)
Time: 01:35:36
(UTC+00:00)

Cosmos 1805 - Pass Details

Date: 22 September 2019
Orbit: 525 x 532 km, 82.5° (Epoch: 16 October)

Event Time Altitude Azimuth Distance (km) Brightness Sun altitude
Exits shadow 19:07:11 23° 153° (SSE) 1,167 4.6 -15.9°
Maximum altitude 19:09:14 43° 94° (E) 752 3.5 -16.2°
Drops below altitude 10° 19:12:57 10° 22° (NNE) 1,782 5.9 -16.8°
Sets 19:15:10 0° 16° (NNE) 2,676 6.9 -17.1°
